Location: Home
(42.5358°N, 72.7383°W)
Time: 00:53:17
(UTC-05:00)

Vanguard 1 - Pass Details

Date: 06 December 2021
Orbit: 652 x 3830 km, 34.2° (Epoch: 21 January)

Event Time Altitude Azimuth Distance (km) Brightness Sun altitude
Rises 02:55:52 0° 272° (W) 7,862 - -45.3°
Reaches altitude 10° 03:01:13 10° 270° (W) 6,924 - -44.3°
Exits shadow 03:20:55 58° 226° (SW) 3,858 12.6 -40.7°
Maximum altitude 03:23:57 61° 198° (SSW) 3,633 12.6 -40.1°
Drops below altitude 10° 03:39:32 10° 122° (ESE) 4,975 14.2 -37.3°
Sets 03:42:40 0° 119° (ESE) 5,635 14.7 -36.7°
